Time,TemperatureF,DewpointF,PressureIn,WindDirection,WindDirectionDegrees,WindSpeedMPH,WindSpeedGustMPH,Humidity,HourlyPrecipIn,Conditions,Clouds,dailyrainin,SoftwareType,DateUTC
2013-02-25 11:45:00,36.5,23.9,30.03,SE,135,10.0,11.0,60,0.00,,,0.00,meteohub,2013-02-25 17:45:00,
2013-02-25 11:47:00,36.7,24.1,30.03,SE,135,9.0,11.0,60,0.00,,,0.00,meteohub,2013-02-25 17:47:00,
2013-02-25 11:49:00,36.9,24.3,30.02,South,180,7.0,11.0,60,0.00,,,0.00,meteohub,2013-02-25 17:49:00,
2013-02-25 11:50:00,36.9,24.3,30.02,SE,135,8.0,11.0,60,0.00,,,0.00,meteohub,2013-02-25 17:50:00,
2013-02-25 11:55:00,37.8,26.2,30.03,South,180,11.0,11.0,63,0.00,,,0.00,meteohub,2013-02-25 17:55:00,
2013-02-25 12:00:00,37.8,25.9,30.02,SE,135,9.0,11.0,62,0.00,,,0.00,meteohub,2013-02-25 18:00:00,
2013-02-25 12:05:00,38.1,25.9,30.02,SE,135,8.0,11.0,61,0.00,,,0.00,meteohub,2013-02-25 18:05:00,
2013-02-25 12:10:00,38.7,26.4,30.01,SE,135,7.0,11.0,61,0.00,,,0.00,meteohub,2013-02-25 18:10:00,
2013-02-25 12:15:00,39.2,26.1,30.01,SE,135,8.0,11.0,59,0.00,,,0.00,meteohub,2013-02-25 18:15:00,
2013-02-25 12:20:00,39.6,26.1,30.01,SE,135,9.0,11.0,58,0.00,,,0.00,meteohub,2013-02-25 18:20:00,
2013-02-25 12:25:00,39.6,25.5,30.01,South,180,8.0,11.0,57,0.00,,,0.00,meteohub,2013-02-25 18:25:00,
2013-02-25 12:30:00,39.0,25.5,30.01,SE,135,8.0,9.0,58,0.00,,,0.00,meteohub,2013-02-25 18:30:00,
2013-02-25 12:35:00,38.8,25.7,30.01,SE,135,9.0,9.0,59,0.00,,,0.00,meteohub,2013-02-25 18:35:00,
2013-02-25 12:40:00,38.8,25.7,30.00,South,180,6.0,9.0,59,0.00,,,0.00,meteohub,2013-02-25 18:40:00,
2013-02-25 12:45:00,39.0,25.9,30.01,South,180,7.0,9.0,59,0.00,,,0.00,meteohub,2013-02-25 18:45:00,
2013-02-25 12:50:00,38.7,25.5,30.01,SE,135,5.0,10.0,59,0.00,,,0.00,meteohub,2013-02-25 18:50:00,
2013-02-25 12:55:00,39.0,25.9,30.01,SE,135,7.0,10.0,59,0.00,,,0.00,meteohub,2013-02-25 18:55:00,
2013-02-25 13:00:00,39.0,25.9,30.00,SE,135,7.0,10.0,59,0.00,,,0.00,meteohub,2013-02-25 19:00:00,
2013-02-25 13:05:00,39.6,26.1,30.00,SE,135,5.0,10.0,58,0.00,,,0.00,meteohub,2013-02-25 19:05:00,
2013-02-25 13:11:00,40.3,26.2,29.99,SW,225,8.0,10.0,57,0.00,,,0.00,meteohub,2013-02-25 19:11:00,
2013-02-25 13:16:00,39.9,25.9,30.00,SW,225,6.0,10.0,57,0.00,,,0.00,meteohub,2013-02-25 19:16:00,
2013-02-25 13:21:00,39.6,25.5,30.00,South,180,9.0,9.0,57,0.00,,,0.00,meteohub,2013-02-25 19:21:00,
2013-02-25 13:26:00,39.6,25.5,30.00,SE,135,7.0,9.0,57,0.00,,,0.00,meteohub,2013-02-25 19:26:00,
2013-02-25 13:31:00,39.6,26.1,30.00,South,180,10.0,10.0,58,0.00,,,0.00,meteohub,2013-02-25 19:31:00,
2013-02-25 13:36:00,39.7,26.2,30.00,South,180,11.0,11.0,58,0.00,,,0.00,meteohub,2013-02-25 19:36:00,
2013-02-25 13:41:00,39.9,26.4,29.99,South,180,7.0,11.0,58,0.00,,,0.00,meteohub,2013-02-25 19:41:00,
2013-02-25 13:46:00,40.5,26.4,29.99,SE,135,8.0,11.0,57,0.00,,,0.00,meteohub,2013-02-25 19:46:00,
2013-02-25 13:51:00,40.3,26.2,29.99,South,180,7.0,11.0,57,0.00,,,0.00,meteohub,2013-02-25 19:51:00,
2013-02-25 13:56:00,40.1,25.7,29.98,South,180,8.0,11.0,56,0.00,,,0.00,meteohub,2013-02-25 19:56:00,
2013-02-25 14:01:00,40.5,26.4,29.98,South,180,6.0,11.0,57,0.00,,,0.00,meteohub,2013-02-25 20:01:00,
2013-02-25 14:06:00,40.1,26.1,29.98,South,180,11.0,11.0,57,0.00,,,0.00,meteohub,2013-02-25 20:06:00,
2013-02-25 14:11:00,40.6,26.2,29.98,SE,135,8.0,11.0,56,0.00,,,0.00,meteohub,2013-02-25 20:11:00,
2013-02-25 14:16:00,41.2,26.2,29.97,South,180,5.0,11.0,55,0.00,,,0.00,meteohub,2013-02-25 20:16:00,
2013-02-25 14:21:00,41.5,26.1,29.97,South,180,8.0,11.0,54,0.00,,,0.00,meteohub,2013-02-25 20:21:00,
2013-02-25 14:26:00,41.2,25.9,29.98,South,180,9.0,11.0,54,0.00,,,0.00,meteohub,2013-02-25 20:26:00,
2013-02-25 14:31:00,41.2,25.9,29.97,South,180,9.0,11.0,54,0.00,,,0.00,meteohub,2013-02-25 20:31:00,
2013-02-25 14:36:00,41.2,26.2,29.98,SE,135,5.0,11.0,55,0.00,,,0.00,meteohub,2013-02-25 20:36:00,
2013-02-25 14:41:00,41.5,26.6,29.98,South,180,9.0,11.0,55,0.00,,,0.00,meteohub,2013-02-25 20:41:00,
2013-02-25 14:46:00,41.4,25.9,29.98,SE,135,8.0,11.0,54,0.00,,,0.00,meteohub,2013-02-25 20:46:00,
2013-02-25 14:52:00,41.2,25.9,29.98,South,180,8.0,10.0,54,0.00,,,0.00,meteohub,2013-02-25 20:52:00,
2013-02-25 14:57:00,41.0,26.1,29.99,South,180,8.0,10.0,55,0.00,,,0.00,meteohub,2013-02-25 20:57:00,
2013-02-25 15:02:00,41.0,26.1,29.99,South,180,7.0,10.0,55,0.00,,,0.00,meteohub,2013-02-25 21:02:00,
2013-02-25 15:07:00,40.8,25.9,29.99,South,180,8.0,10.0,55,0.00,,,0.00,meteohub,2013-02-25 21:07:00,
2013-02-25 15:12:00,40.8,25.9,29.98,SE,135,7.0,11.0,55,0.00,,,0.00,meteohub,2013-02-25 21:12:00,
2013-02-25 15:17:00,40.8,25.9,29.99,South,180,8.0,11.0,55,0.00,,,0.00,meteohub,2013-02-25 21:17:00,
2013-02-25 15:22:00,40.5,25.5,29.99,South,180,4.0,10.0,55,0.00,,,0.00,meteohub,2013-02-25 21:22:00,
2013-02-25 15:27:00,41.0,25.7,29.99,SE,135,4.0,10.0,54,0.00,,,0.00,meteohub,2013-02-25 21:27:00,
2013-02-25 15:32:00,41.2,26.2,29.98,North,0,3.0,10.0,55,0.00,,,0.00,meteohub,2013-02-25 21:32:00,
2013-02-25 15:37:00,41.4,25.9,29.98,East,90,4.0,7.0,54,0.00,,,0.00,meteohub,2013-02-25 21:37:00,
2013-02-25 15:42:00,41.0,25.2,29.98,NE,45,4.0,7.0,53,0.00,,,0.00,meteohub,2013-02-25 21:42:00,
2013-02-25 15:47:00,40.8,25.5,29.98,East,90,4.0,6.0,54,0.00,,,0.00,meteohub,2013-02-25 21:47:00,
2013-02-25 15:52:00,40.8,25.9,29.97,East,90,2.0,6.0,55,0.00,,,0.00,meteohub,2013-02-25 21:52:00,
2013-02-25 15:57:00,40.8,25.9,29.98,SE,135,5.0,6.0,55,0.00,,,0.00,meteohub,2013-02-25 21:57:00,
2013-02-25 16:02:00,40.3,25.3,29.97,NE,45,8.0,8.0,55,0.00,,,0.00,meteohub,2013-02-25 22:02:00,
2013-02-25 16:07:00,39.9,25.9,29.97,NE,45,8.0,8.0,57,0.00,,,0.00,meteohub,2013-02-25 22:07:00,
2013-02-25 16:12:00,39.7,26.2,29.96,East,90,4.0,8.0,58,0.00,,,0.00,meteohub,2013-02-25 22:12:00,
2013-02-25 16:17:00,39.7,26.2,29.97,NE,45,7.0,8.0,58,0.00,,,0.00,meteohub,2013-02-25 22:17:00,
2013-02-25 16:22:00,39.4,25.9,29.97,NE,45,6.0,8.0,58,0.00,,,0.00,meteohub,2013-02-25 22:22:00,
2013-02-25 16:27:00,39.2,25.7,29.97,East,90,8.0,8.0,58,0.00,,,0.00,meteohub,2013-02-25 22:27:00,
2013-02-25 16:32:00,38.5,25.9,29.97,East,90,6.0,8.0,60,0.00,,,0.00,meteohub,2013-02-25 22:32:00,
2013-02-25 16:37:00,37.9,25.3,29.97,East,90,5.0,8.0,60,0.00,,,0.00,meteohub,2013-02-25 22:37:00,
2013-02-25 16:42:00,37.6,25.3,29.97,East,90,7.0,8.0,61,0.00,,,0.00,meteohub,2013-02-25 22:42:00,
2013-02-25 16:47:00,37.4,25.2,29.97,NE,45,9.0,9.0,61,0.00,,,0.00,meteohub,2013-02-25 22:47:00,
2013-02-25 16:52:00,37.0,23.7,29.96,East,90,6.0,9.0,58,0.00,,,0.00,meteohub,2013-02-25 22:52:00,
2013-02-25 16:57:00,36.5,23.5,29.96,NE,45,8.0,9.0,59,0.00,,,0.00,meteohub,2013-02-25 22:57:00,
2013-02-25 17:02:00,36.1,23.5,29.96,NE,45,8.0,9.0,60,0.00,,,0.00,meteohub,2013-02-25 23:02:00,
2013-02-25 17:07:00,36.0,23.4,29.96,East,90,7.0,9.0,60,0.00,,,0.00,meteohub,2013-02-25 23:07:00,
2013-02-25 17:12:00,35.6,23.5,29.96,NE,45,8.0,9.0,61,0.00,,,0.00,meteohub,2013-02-25 23:12:00,
2013-02-25 17:17:00,35.6,23.5,29.96,East,90,6.0,9.0,61,0.00,,,0.00,meteohub,2013-02-25 23:17:00,
2013-02-25 17:22:00,35.4,23.7,29.96,NE,45,7.0,9.0,62,0.00,,,0.00,meteohub,2013-02-25 23:22:00,
2013-02-25 17:27:00,35.2,23.5,29.96,NE,45,7.0,8.0,62,0.00,,,0.00,meteohub,2013-02-25 23:27:00,
2013-02-25 17:32:00,35.1,23.7,29.96,East,90,4.0,8.0,63,0.00,,,0.00,meteohub,2013-02-25 23:32:00,
2013-02-25 17:37:00,34.7,23.4,29.95,NE,45,5.0,8.0,63,0.00,,,0.00,meteohub,2013-02-25 23:37:00,
2013-02-25 17:42:00,34.5,23.5,29.95,East,90,4.0,8.0,64,0.00,,,0.00,meteohub,2013-02-25 23:42:00,
2013-02-25 17:47:00,34.3,23.4,29.95,NE,45,8.0,8.0,64,0.00,,,0.00,meteohub,2013-02-25 23:47:00,
2013-02-25 17:52:00,34.2,23.5,29.96,NE,45,4.0,8.0,65,0.00,,,0.00,meteohub,2013-02-25 23:52:00,
2013-02-25 17:57:00,34.0,23.5,29.96,NE,45,4.0,8.0,65,0.00,,,0.00,meteohub,2013-02-25 23:57:00,
2013-02-25 18:02:00,33.8,23.7,29.95,East,90,4.0,8.0,66,0.00,,,0.00,meteohub,2013-02-26 00:02:00,
2013-02-25 18:07:00,33.6,23.9,29.95,NE,45,7.0,7.0,67,0.00,,,0.00,meteohub,2013-02-26 00:07:00,
2013-02-25 18:12:00,33.8,24.1,29.95,NE,45,6.0,8.0,67,0.00,,,0.00,meteohub,2013-02-26 00:12:00,
2013-02-25 18:17:00,33.8,24.1,29.95,NE,45,4.0,9.0,67,0.00,,,0.00,meteohub,2013-02-26 00:17:00,
2013-02-25 18:22:00,33.6,24.3,29.95,NE,45,5.0,9.0,68,0.00,,,0.00,meteohub,2013-02-26 00:22:00,
2013-02-25 18:27:00,33.6,24.3,29.95,NE,45,5.0,9.0,68,0.00,,,0.00,meteohub,2013-02-26 00:27:00,
2013-02-25 18:32:00,33.4,24.1,29.95,NE,45,6.0,8.0,68,0.00,,,0.00,meteohub,2013-02-26 00:32:00,
2013-02-25 18:37:00,33.4,24.1,29.94,NE,45,8.0,8.0,68,0.00,,,0.00,meteohub,2013-02-26 00:37:00,
2013-02-25 18:42:00,33.4,24.1,29.94,NE,45,8.0,9.0,68,0.00,,,0.00,meteohub,2013-02-26 00:42:00,
2013-02-25 18:47:00,33.4,24.1,29.94,NE,45,7.0,9.0,68,0.00,,,0.00,meteohub,2013-02-26 00:47:00,
2013-02-25 18:52:00,33.4,24.1,29.93,North,0,5.0,11.0,68,0.00,,,0.00,meteohub,2013-02-26 00:52:00,
2013-02-25 18:57:00,33.4,24.1,29.93,NE,45,6.0,11.0,68,0.00,,,0.00,meteohub,2013-02-26 00:57:00,
2013-02-25 19:02:00,33.4,23.7,29.93,NE,45,9.0,11.0,67,0.00,,,0.00,meteohub,2013-02-26 01:02:00,
2013-02-25 19:07:00,33.4,23.7,29.92,NE,45,9.0,10.0,67,0.00,,,0.00,meteohub,2013-02-26 01:07:00,
2013-02-25 19:12:00,33.4,23.7,29.91,NE,45,6.0,10.0,67,0.00,,,0.00,meteohub,2013-02-26 01:12:00,
2013-02-25 19:17:00,33.4,23.7,29.91,North,0,6.0,10.0,67,0.00,,,0.00,meteohub,2013-02-26 01:17:00,
2013-02-25 19:22:00,33.6,23.9,29.91,NE,45,13.0,13.0,67,0.00,,,0.00,meteohub,2013-02-26 01:22:00,
2013-02-25 19:28:00,33.8,23.7,29.91,NE,45,8.0,13.0,66,0.00,,,0.00,meteohub,2013-02-26 01:28:00,
2013-02-25 19:33:00,33.8,23.4,29.90,North,0,9.0,13.0,65,0.00,,,0.00,meteohub,2013-02-26 01:33:00,
2013-02-25 19:38:00,33.8,23.4,29.89,NE,45,11.0,13.0,65,0.00,,,0.00,meteohub,2013-02-26 01:38:00,
2013-02-25 19:43:00,33.8,23.4,29.89,NE,45,10.0,12.0,65,0.00,,,0.00,meteohub,2013-02-26 01:43:00,
2013-02-25 19:48:00,33.8,23.4,29.89,NE,45,11.0,12.0,65,0.00,,,0.00,meteohub,2013-02-26 01:48:00,
2013-02-25 19:53:00,34.0,23.0,29.89,NW,315,11.0,15.0,64,0.00,,,0.00,meteohub,2013-02-26 01:53:00,
2013-02-25 19:58:00,34.0,23.0,29.90,NE,45,5.0,15.0,64,0.00,,,0.00,meteohub,2013-02-26 01:58:00,
2013-02-25 20:03:00,33.8,23.0,29.89,NE,45,9.0,15.0,64,0.00,,,0.00,meteohub,2013-02-26 02:03:00,
2013-02-25 20:08:00,33.6,23.2,29.89,NE,45,8.0,14.0,65,0.00,,,0.00,meteohub,2013-02-26 02:08:00,
2013-02-25 20:13:00,33.6,23.2,29.90,NE,45,10.0,14.0,65,0.00,,,0.00,meteohub,2013-02-26 02:13:00,
2013-02-25 20:18:00,33.6,23.2,29.91,East,90,11.0,14.0,65,0.00,,,0.00,meteohub,2013-02-26 02:18:00,
2013-02-25 20:23:00,33.6,23.2,29.90,NE,45,11.0,11.0,65,0.00,,,0.00,meteohub,2013-02-26 02:23:00,
2013-02-25 20:28:00,33.4,23.0,29.89,NE,45,10.0,11.0,65,0.00,,,0.00,meteohub,2013-02-26 02:28:00,
2013-02-25 20:33:00,33.3,23.2,29.89,NE,45,14.0,14.0,66,0.00,,,0.00,meteohub,2013-02-26 02:33:00,
2013-02-25 20:38:00,33.3,23.2,29.89,NE,45,11.0,11.0,66,0.00,,,0.00,meteohub,2013-02-26 02:38:00,
2013-02-25 20:43:00,33.3,23.2,29.89,NE,45,9.0,14.0,66,0.00,,,0.00,meteohub,2013-02-26 02:43:00,
2013-02-25 20:49:00,33.1,23.0,29.89,NE,45,14.0,14.0,66,0.00,,,0.00,meteohub,2013-02-26 02:49:00,
2013-02-25 20:54:00,33.1,23.0,29.89,NE,45,12.0,13.0,66,0.00,,,0.00,meteohub,2013-02-26 02:54:00,
2013-02-25 20:59:00,33.1,23.0,29.90,NE,45,11.0,14.0,66,0.00,,,0.00,meteohub,2013-02-26 02:59:00,
2013-02-25 21:04:00,33.1,23.0,29.89,NE,45,11.0,14.0,66,0.00,,,0.00,meteohub,2013-02-26 03:04:00,
2013-02-25 21:09:00,33.1,23.0,29.90,NE,45,13.0,13.0,66,0.00,,,0.00,meteohub,2013-02-26 03:09:00,
2013-02-25 21:14:00,33.3,22.8,29.89,NE,45,9.0,13.0,65,0.00,,,0.00,meteohub,2013-02-26 03:14:00,
2013-02-25 21:19:00,33.3,22.8,29.89,NE,45,15.0,15.0,65,0.00,,,0.00,meteohub,2013-02-26 03:19:00,
2013-02-25 21:24:00,33.3,22.8,29.89,NE,45,9.0,15.0,65,0.00,,,0.00,meteohub,2013-02-26 03:24:00,
2013-02-25 21:29:00,33.3,22.8,29.88,East,90,11.0,15.0,65,0.00,,,0.00,meteohub,2013-02-26 03:29:00,
2013-02-25 21:34:00,33.3,22.8,29.88,NE,45,11.0,15.0,65,0.00,,,0.00,meteohub,2013-02-26 03:34:00,
2013-02-25 21:39:00,33.3,22.8,29.88,East,90,9.0,14.0,65,0.00,,,0.00,meteohub,2013-02-26 03:39:00,
2013-02-25 21:44:00,33.3,22.8,29.89,East,90,9.0,14.0,65,0.00,,,0.00,meteohub,2013-02-26 03:44:00,
2013-02-25 21:49:00,33.1,22.6,29.90,East,90,10.0,14.0,65,0.00,,,0.00,meteohub,2013-02-26 03:49:00,
2013-02-25 21:54:00,33.1,23.0,29.90,East,90,10.0,14.0,66,0.00,,,0.00,meteohub,2013-02-26 03:54:00,
2013-02-25 21:59:00,32.9,22.8,29.90,East,90,10.0,14.0,66,0.00,,,0.00,meteohub,2013-02-26 03:59:00,
2013-02-25 22:04:00,32.9,22.8,29.89,East,90,10.0,12.0,66,0.00,,,0.00,meteohub,2013-02-26 04:04:00,
2013-02-25 22:10:00,32.9,22.8,29.89,East,90,11.0,12.0,66,0.00,,,0.00,meteohub,2013-02-26 04:10:00,
2013-02-25 22:15:00,32.7,22.6,29.89,East,90,7.0,11.0,66,0.00,,,0.00,meteohub,2013-02-26 04:15:00,
2013-02-25 22:20:00,32.5,22.5,29.88,East,90,11.0,11.0,66,0.00,,,0.00,meteohub,2013-02-26 04:20:00,
2013-02-25 22:25:00,32.5,22.5,29.89,East,90,8.0,11.0,66,0.00,,,0.00,meteohub,2013-02-26 04:25:00,
2013-02-25 22:30:00,32.5,22.5,29.89,East,90,9.0,11.0,66,0.00,,,0.00,meteohub,2013-02-26 04:30:00,
2013-02-25 22:35:00,32.5,22.5,29.88,East,90,8.0,11.0,66,0.00,,,0.00,meteohub,2013-02-26 04:35:00,
2013-02-25 22:40:00,32.5,22.5,29.87,East,90,8.0,11.0,66,0.00,,,0.00,meteohub,2013-02-26 04:40:00,
2013-02-25 22:45:00,32.5,22.5,29.87,East,90,8.0,11.0,66,0.00,,,0.00,meteohub,2013-02-26 04:45:00,
2013-02-25 22:50:00,32.5,22.5,29.87,East,90,9.0,11.0,66,0.00,,,0.00,meteohub,2013-02-26 04:50:00,
2013-02-25 22:55:00,32.5,22.5,29.86,East,90,13.0,13.0,66,0.00,,,0.00,meteohub,2013-02-26 04:55:00,
2013-02-25 23:00:00,32.5,22.1,29.86,East,90,11.0,13.0,65,0.00,,,0.00,meteohub,2013-02-26 05:00:00,
2013-02-25 23:01:00,32.5,22.1,29.86,NE,45,10.0,13.0,65,0.00,,,0.00,meteohub,2013-02-26 05:01:00,
2013-02-25 23:02:00,32.5,22.1,29.86,East,90,11.0,13.0,65,0.00,,,0.00,meteohub,2013-02-26 05:02:00,
2013-02-25 23:06:00,32.4,21.9,29.85,NE,45,16.0,16.0,65,0.00,,,0.00,meteohub,2013-02-26 05:06:00,
2013-02-25 23:11:00,32.4,21.9,29.85,East,90,10.0,16.0,65,0.00,,,0.00,meteohub,2013-02-26 05:11:00,
2013-02-25 23:16:00,32.4,21.9,29.84,East,90,15.0,16.0,65,0.00,,,0.00,meteohub,2013-02-26 05:16:00,
2013-02-25 23:21:00,32.4,21.6,29.84,East,90,13.0,16.0,64,0.00,,,0.00,meteohub,2013-02-26 05:21:00,
2013-02-25 23:26:00,32.4,21.6,29.84,East,90,11.0,16.0,64,0.00,,,0.00,meteohub,2013-02-26 05:26:00,
2013-02-25 23:31:00,32.4,21.9,29.83,East,90,11.0,16.0,65,0.00,,,0.00,meteohub,2013-02-26 05:31:00,
2013-02-25 23:36:00,32.4,21.9,29.83,East,90,8.0,15.0,65,0.00,,,0.00,meteohub,2013-02-26 05:36:00,
2013-02-25 23:41:00,32.4,21.9,29.83,East,90,11.0,15.0,65,0.00,,,0.00,meteohub,2013-02-26 05:41:00,
2013-02-25 23:46:00,32.4,21.9,29.82,East,90,10.0,13.0,65,0.00,,,0.00,meteohub,2013-02-26 05:46:00,
2013-02-25 23:51:00,32.4,21.9,29.82,NE,45,15.0,15.0,65,0.00,,,0.00,meteohub,2013-02-26 05:51:00,
2013-02-25 23:57:00,32.4,21.9,29.82,NE,45,15.0,15.0,65,0.00,,,0.00,meteohub,2013-02-26 05:57:00,